Weather History for KLXN - March, 2012

Change the Weather History Date:

Tuesday, March 6, 2012

  Actual Average Record
Temperature  
Mean Temperature 50 °F -  
Max Temperature 76 °F 40 °F 76 °F (2012)
Min Temperature 24 °F 19 °F 12 °F (2008)
Degree Days  
Heating Degree Days 15    
Moisture  
Dew Point 24 °F    
Average Humidity 49    
Maximum Humidity 86    
Minimum Humidity 11    
Precipitation  
Precipitation 0.00 in - - ()
Sea Level Pressure  
Sea Level Pressure 29.61 in    
Wind  
Wind Speed 7 mph (South)    
Max Wind Speed 25 mph    
Max Gust Speed 32 mph    
Visibility 10 miles    
Events      
Averages and records for this station are not official NWS values.
T = Trace of Precipitation, MM = Missing Value Source: NWS Daily Summary

Daily Weather History Graph

Daily Weather History Graph

Search for Another Location

Airport or City:

Trip Planner

Search our weather history database for the weather conditions in past years. The results will help you decide how hot, cold, wet, or windy it might be!

Date:

Astronomy

Mar. 06, 2012 Rise Set
Actual Time 7:04 AM CST 6:36 PM CST
Civil Twilight 6:37 AM CST 7:03 PM CST
Nautical Twilight 6:05 AM CST 7:35 PM CST
Astronomical Twilight 5:33 AM CST 8:07 PM CST
Moon 5:04 PM CST (3/6) 5:41 AM CST (3/6)
Length of Visible Light 12h 26m
Length of Day
11h 32m
Waxing Gibbous, 96% of the Moon is Illuminated
Mar 6
Waxing Gibbous
Mar 8
Full
Mar 14
Last Quarter
Mar 22
New
Mar 30
First Quarter

Hourly Weather History & Observations

Time (CST) Temp. Windchill Dew Point Humidity Pressure Visibility Wind Dir Wind Speed Gust Speed Precip Events Conditions
12:15 AM 32.4 °F 26.0 °F 26.6 °F 79% 29.74 in 10.0 mi WNW 6.9 mph - N/A   Clear
12:35 AM 32.4 °F - 27.0 °F 80% 29.71 in 10.0 mi Calm Calm - N/A   Clear
12:55 AM 30.7 °F 24.1 °F 25.3 °F 80% 29.72 in 10.0 mi WSW 6.9 mph - N/A   Clear
1:15 AM 29.7 °F 24.7 °F 25.0 °F 83% 29.73 in 10.0 mi West 4.6 mph - N/A   Clear
1:35 AM 28.9 °F 23.9 °F 24.4 °F 83% 29.73 in 10.0 mi SSW 4.6 mph - N/A   Clear
1:55 AM 29.8 °F 26.3 °F 24.8 °F 81% 29.73 in 10.0 mi WSW 3.5 mph - N/A   Clear
2:15 AM 27.5 °F 23.6 °F 23.0 °F 83% 29.73 in 10.0 mi NW 3.5 mph - N/A   Clear
2:35 AM 27.7 °F 21.3 °F 22.5 °F 81% 29.71 in 10.0 mi NW 5.8 mph - N/A   Clear
2:55 AM 28.9 °F - 23.4 °F 80% 29.71 in 10.0 mi Calm Calm - N/A   Clear
3:15 AM 28.2 °F 24.4 °F 23.2 °F 81% 29.70 in 10.0 mi NW 3.5 mph - N/A   Clear
3:35 AM 27.7 °F - 22.8 °F 82% 29.69 in 10.0 mi Calm Calm - N/A   Clear
3:55 AM 25.9 °F 20.3 °F 22.3 °F 86% 29.69 in 10.0 mi West 4.6 mph - N/A   Clear
4:15 AM 26.2 °F 20.7 °F 22.1 °F 84% 29.68 in 10.0 mi NNW 4.6 mph - N/A   Clear
4:35 AM 27.0 °F 20.5 °F 22.3 °F 83% 29.68 in 10.0 mi NNW 5.8 mph - N/A   Clear
4:55 AM 26.8 °F - 22.3 °F 83% 29.69 in 10.0 mi Calm Calm - N/A   Clear
5:15 AM 26.6 °F 21.2 °F 22.6 °F 85% 29.69 in 10.0 mi WSW 4.6 mph - N/A   Clear
5:35 AM 27.3 °F 22.0 °F 23.0 °F 84% 29.69 in 10.0 mi WSW 4.6 mph - N/A   Clear
5:55 AM 26.8 °F 22.8 °F 22.1 °F 83% 29.69 in 10.0 mi NW 3.5 mph - N/A   Clear
6:55 AM 25.7 °F - 21.2 °F 83% 29.68 in 10.0 mi Calm Calm - N/A   Clear
7:15 AM 24.3 °F 19.9 °F 20.5 °F 85% 29.68 in 10.0 mi NNW 3.5 mph - N/A   Clear
7:35 AM 26.4 °F - 22.6 °F 86% 29.67 in 10.0 mi Calm Calm - N/A   Clear
7:55 AM 28.9 °F - 24.6 °F 84% 29.67 in 10.0 mi Calm Calm - N/A   Clear
8:15 AM 32.5 °F 29.3 °F 27.7 °F 82% 29.68 in 10.0 mi West 3.5 mph - N/A   Clear
8:35 AM 36.7 °F - 29.3 °F 75% 29.68 in 10.0 mi Calm Calm - N/A   Clear
8:55 AM 40.6 °F - 30.4 °F 67% 29.68 in 10.0 mi Calm Calm - N/A   Clear
9:15 AM 44.4 °F - 30.6 °F 58% 29.68 in 10.0 mi Calm Calm - N/A   Clear
9:35 AM 47.8 °F - 30.0 °F 50% 29.67 in 10.0 mi Calm Calm - N/A   Clear
9:55 AM 52.7 °F - 28.9 °F 40% 29.67 in 10.0 mi Calm Calm - N/A   Clear
10:15 AM 56.7 °F - 28.2 °F 34% 29.66 in 10.0 mi Calm Calm - N/A   Clear
10:35 AM 60.8 °F - 28.9 °F 30% 29.65 in 10.0 mi SE 4.6 mph - N/A   Clear
10:55 AM 64.6 °F - 21.7 °F 19% 29.64 in 10.0 mi South 9.2 mph - N/A   Clear
11:15 AM 66.4 °F - 21.9 °F 18% 29.63 in 10.0 mi South 8.1 mph - N/A   Clear
11:35 AM 68.5 °F - 20.8 °F 16% 29.62 in 10.0 mi SSE 10.4 mph - N/A   Clear
11:55 AM 67.3 °F - 20.3 °F 17% 29.62 in 10.0 mi SSE 10.4 mph - N/A   Clear
12:15 PM 68.4 °F - 21.4 °F 17% 29.61 in 10.0 mi South 9.2 mph - N/A   Clear
12:35 PM 70.3 °F - 21.9 °F 16% 29.59 in 10.0 mi South 11.5 mph - N/A   Clear
12:55 PM 72.9 °F - 18.7 °F 13% 29.59 in 10.0 mi South 12.7 mph 17.3 mph N/A   Clear
1:35 PM 75.0 °F - 19.2 °F 12% 29.55 in 10.0 mi SSE 16.1 mph - N/A   Clear
1:55 PM 75.7 °F - 18.5 °F 12% 29.54 in 10.0 mi South 17.3 mph - N/A   Clear
2:15 PM 74.7 °F - 20.7 °F 13% 29.53 in 10.0 mi SSE 17.3 mph 21.9 mph N/A   Clear
2:35 PM 76.1 °F - 18.5 °F 11% 29.52 in 10.0 mi SSE 20.7 mph - N/A   Clear
2:55 PM 76.1 °F - 20.8 °F 13% 29.51 in 10.0 mi SSE 18.4 mph 26.5 mph N/A   Clear
3:15 PM 74.3 °F - 21.2 °F 14% 29.51 in 10.0 mi SSE 18.4 mph 24.2 mph N/A   Clear
3:35 PM 75.2 °F - 18.3 °F 12% 29.49 in 10.0 mi South 16.1 mph 24.2 mph N/A   Clear
4:15 PM 76.5 °F - 18.9 °F 12% 29.48 in 10.0 mi South 20.7 mph 29.9 mph N/A   Clear
4:35 PM 74.1 °F - 20.1 °F 13% 29.48 in 10.0 mi South 25.3 mph 32.2 mph N/A   Clear
5:15 PM 70.9 °F - 25.7 °F 18% 29.48 in 10.0 mi SSE 16.1 mph - N/A   Clear
5:35 PM 70.0 °F - 24.1 °F 18% 29.47 in 10.0 mi SSE 17.3 mph - N/A   Clear
5:55 PM 69.1 °F - 24.6 °F 19% 29.47 in 10.0 mi SSE 17.3 mph - N/A   Clear
6:15 PM 68.0 °F - 25.2 °F 20% 29.46 in 10.0 mi SE 13.8 mph - N/A   Clear
6:35 PM 66.6 °F - 26.4 °F 22% 29.46 in 10.0 mi SE 15.0 mph - N/A   Clear
6:55 PM 65.1 °F - 27.9 °F 25% 29.46 in 10.0 mi SSE 13.8 mph - N/A   Clear
7:15 PM 63.9 °F - 29.5 °F 27% 29.46 in 10.0 mi SE 15.0 mph - N/A   Clear
7:35 PM 63.3 °F - 31.1 °F 30% 29.45 in 10.0 mi SE 13.8 mph - N/A   Clear
8:15 PM 60.4 °F - 32.0 °F 34% 29.46 in 10.0 mi SE 15.0 mph - N/A   Clear
8:35 PM 59.5 °F - 32.7 °F 36% 29.46 in 10.0 mi SSE 12.7 mph - N/A   Clear
9:15 PM 61.7 °F - 37.9 °F 41% 29.45 in 10.0 mi South 20.7 mph 24.2 mph N/A   Clear
9:35 PM 62.1 °F - 39.2 °F 43% 29.45 in 10.0 mi South 24.2 mph 32.2 mph N/A   Clear
9:55 PM 61.2 °F - 39.7 °F 45% 29.46 in 10.0 mi South 20.7 mph 31.1 mph N/A   Clear
10:15 PM 60.1 °F - 40.3 °F 48% 29.45 in 10.0 mi South 16.1 mph 23.0 mph N/A   Clear
10:55 PM 57.6 °F - 41.4 °F 55% 29.44 in 10.0 mi SSE 17.3 mph 20.7 mph N/A   Clear
11:15 PM 58.3 °F - 42.4 °F 56% 29.43 in 10.0 mi South 21.9 mph 25.3 mph N/A   Clear
11:35 PM 59.0 °F - 43.3 °F 56% 29.43 in 10.0 mi South 19.6 mph 25.3 mph N/A   Clear
11:55 PM 59.0 °F - 44.2 °F 58% 29.43 in 10.0 mi South 18.4 mph 26.5 mph N/A   Clear